EW9167 Weather Reports


time (UTC)temp
F
wind
direction
speed
knots
gust
knots
rain 1hr
in
rain 24hr
in
rain mn
in
humidity
%
barometer
mb
20260505052220 61 163 0.9 3.5 0.00 0.00 0.00 69 1012.6
20260505051217 62 180 0.0 4.3 0.00 0.00 0.00 67 1012.9
20260505050216 62 134 0.9 4.3 0.00 0.00 0.00 66 1012.9
20260505041209 62 114 0.9 2.6 0.00 0.00 0.00 65 1012.6
20260505040206 62 252 0.0 3.5 0.00 0.00 0.00 65 1012.6
20260505035207 62 136 1.7 3.5 0.00 0.00 0.00 66 1012.6
20260505034205 61 147 1.7 4.3 0.00 0.00 0.00 66 1012.9
20260505033204 61 138 1.7 3.5 0.00 0.00 0.00 65 1012.6
20260505032204 62 159 0.0 2.6 0.00 0.00 0.00 65 1012.6
20260505031611 62 157 1.7 2.6 0.00 0.00 0.00 64 1012.3
20260505031345 62 195 1.7 3.5 0.00 0.00 0.00 65 1012.6
20260505025639 62 145 0.9 2.6 0.00 0.00 0.00 62 1012.6
20260505025055 62 150 2.6 2.6 0.00 0.00 0.00 59 1012.9
20260505024339 61 176 0.0 2.6 0.00 0.00 0.00 60 1012.9
20260505022638 62 165 1.7 3.5 0.00 0.00 0.00 56 1012.9
20260505021159 62 111 1.7 2.6 0.00 0.00 0.00 55 1012.9
20260505020153 62 125 0.9 2.6 0.00 0.00 0.00 55 1012.9
20260505015152 62 130 1.7 2.6 0.00 0.00 0.00 56 1012.9
20260505014150 62 142 0.9 1.7 0.00 0.00 0.00 56 1012.6
20260505013151 62 124 1.7 1.7 0.00 0.00 0.00 56 1012.9
20260505012149 62 121 1.7 1.7 0.00 0.00 0.00 56 1012.9
20260505011146 63 125 1.7 2.6 0.00 0.00 0.00 55 1012.6
20260505010146 63 150 0.9 2.6 0.00 0.00 0.00 54 1012.6
20260505005147 64 139 1.7 2.6 0.00 0.00 0.00 54 1012.6
20260505005104 64 146 0.9 2.6 0.00 0.00 0.00 52 1012.3
20260505003136 65 140 1.7 2.6 0.00 0.00 0.00 51 1012.3
20260505002611 65 141 1.7 2.6 0.00 0.00 0.00 50 1012.3
20260505001132 66 142 0.0 2.6 0.00 0.00 0.00 49 1012.3
20260505000134 66 154 0.9 2.6 0.00 0.00 0.00 48 1011.9
20260504235135 67 148 0.9 3.5 0.00 0.00 0.00 47 1011.9
20260504234135 68 127 1.7 2.6 0.00 0.00 0.00 45 1011.9
20260504233133 69 256 0.9 2.6 0.00 0.00 0.00 44 1011.9
20260504232624 70 139 0.0 1.7 0.00 0.00 0.00 43 1011.9
20260504231133 71 132 1.7 1.7 0.00 0.00 0.00 41 1011.9
20260504230135 72 158 0.0 3.5 0.00 0.00 0.00 39 1011.9
20260504225130 72 217 0.0 4.3 0.00 0.00 0.00 39 1011.6
20260504224130 73 210 2.6 7.0 0.00 0.00 0.00 38 1011.9
20260504224100 74 162 1.7 5.2 0.00 0.00 0.00 38 1011.9
20260504222131 74 199 4.3 8.7 0.00 0.00 0.00 36 1011.9
20260504221130 76 169 2.6 7.8 0.00 0.00 0.00 33 1011.9
20260504220133 78 250 4.3 7.0 0.00 0.00 0.00 33 1011.9
20260504215133 79 288 1.7 9.6 0.00 0.00 0.00 32 1011.9
20260504214135 80 220 0.9 5.2 0.00 0.00 0.00 31 1012.3
20260504213132 80 237 0.0 7.0 0.00 0.00 0.00 32 1012.3
20260504212132 80 186 1.7 8.7 0.00 0.00 0.00 32 1012.3
20260504211135 80 224 2.6 7.0 0.00 0.00 0.00 30 1012.3
20260504210131 81 232 3.5 6.1 0.00 0.00 0.00 32 1012.3
20260504205134 80 166 1.7 6.1 0.00 0.00 0.00 31 1012.3
20260504204135 80 181 0.0 8.7 0.00 0.00 0.00 31 1012.3
20260504203132 80 247 0.0 7.8 0.00 0.00 0.00 33 1012.3
20260504202134 80 213 7.0 7.8 0.00 0.00 0.00 31 1012.3
20260504201133 80 217 4.3 6.1 0.00 0.00 0.00 34 1012.6
20260504200135 80 157 0.9 9.6 0.00 0.00 0.00 30 1012.6
20260504195139 80 231 5.2 13.0 0.00 0.00 0.00 30 1012.6
20260504194149 80 101 0.0 6.1 0.00 0.00 0.00 30 1012.6
20260504193133 80 249 1.7 7.8 0.00 0.00 0.00 32 1012.9
20260504192138 79 197 2.6 7.0 0.00 0.00 0.00 31 1012.9
20260504191135 78 185 0.0 8.7 0.00 0.00 0.00 33 1013.3
20260504190139 77 110 0.9 6.1 0.00 0.00 0.00 35 1012.9
20260504190054 77 225 5.2 9.6 0.00 0.00 0.00 33 1013.3
20260504184137 77 165 1.7 7.8 0.00 0.00 0.00 32 1013.3
20260504183136 77 180 1.7 6.1 0.00 0.00 0.00 37 1013.6
20260504182133 77 250 3.5 7.8 0.00 0.00 0.00 33 1013.6
20260504181131 76 273 0.0 7.0 0.00 0.00 0.00 36 1013.6
20260504180131 76 208 0.9 7.8 0.00 0.00 0.00 34 1014.0
20260504175131 76 200 1.7 5.2 0.00 0.00 0.00 34 1014.3
20260504174134 75 159 0.9 7.8 0.00 0.00 0.00 33 1014.3
20260504173133 74 218 3.5 5.2 0.00 0.00 0.00 36 1014.6
20260504172135 73 201 1.7 7.0 0.00 0.00 0.00 35 1014.3
20260504171135 73 11 1.7 5.2 0.00 0.00 0.00 36 1014.6
20260504170134 73 201 6.1 7.0 0.00 0.00 0.00 34 1015.0
20260504160134 71 226 6.1 9.6 0.00 0.00 0.00 35 1015.3
20260504151135 69 224 3.5 5.2 0.00 0.00 0.00 47 1016.0
20260504150134 68 227 2.6 6.1 0.00 0.00 0.00 47 1016.0
20260504140131 64 276 0.0 7.0 0.00 0.00 0.00 51 1016.3
20260504130133 60 214 2.6 7.8 0.00 0.00 0.00 60 1016.7
20260504120132 54 169 1.7 4.3 0.00 0.00 0.00 74 1016.7
20260504110133 49 138 2.6 2.6 0.00 0.00 0.00 80 1017.3
20260504100134 47 149 1.7 2.6 0.00 0.00 0.00 77 1017.3
20260504090125 48 140 1.7 4.3 0.00 0.00 0.00 74 1017.3
20260504081119 46 125 1.7 2.6 0.00 0.00 0.00 73 1017.3
20260504080117 45 134 1.7 2.6 0.00 0.00 0.00 72 1017.3
20260504070105 46 129 1.7 3.5 0.00 0.00 0.00 70 1017.0
20260504060105 46 122 0.9 2.6 0.00 0.00 0.00 68 1017.0